Theta_e
319 320 320 320 321 321 321 322 323 322 321 322 322 322 322 321 321 320 320 322 325 325 327 329 331 331 332 330 329 327 326 325 325 324 323 321 319 318 318 317 316 315 313 310
320 319 319 319 319 319 319 320 321 321 321 321 320 320 321 322 320 320 321 321 324 327 329 331 331 331 329 326 325 323 321 319 320 318 314 316 315 314 311 311 308 307 306 304
322 320 320 323 319 319 319 319 320 321 321 321 321 321 320 320 320 321 322 323 324 326 326 325 326 325 323 321 319 318 316 315 315 315 315 313 310 308 305 304 303 303 302 301
325 322 326 320 320 320 320 320 320 320 321 321 320 319 319 320 320 321 321 322 321 320 320 320 320 318 317 316 315 313 312 312 312 312 310 307 305 305 304 302 301 301 302 302
327 325 320 319 320 320 320 320 320 320 321 320 319 319 319 318 320 320 318 317 317 316 316 316 315 315 314 313 311 310 309 308 307 306 305 305 303 302 302 302 302 301 299 298
325 324 325 322 320 320 320 323 320 320 320 319 318 321 320 317 318 317 316 315 314 314 314 313 313 312 311 310 309 308 307 306 305 305 304 303 302 302 301 300 299 298 297 296
327 326 322 320 320 320 323 324 320 320 319 319 319 319 319 317 315 314 313 313 312 312 312 311 311 310 310 309 307 306 305 305 304 303 303 302 301 299 298 297 296 295 292 293
326 328 328 320 320 322 322 321 321 320 319 319 318 319 317 315 313 313 312 311 311 311 310 310 310 309 308 307 305 304 303 303 303 302 299 298 297 295 294 294 294 294 294 293
323 324 322 319 320 320 320 321 322 321 320 319 319 317 315 313 312 311 310 310 310 310 309 309 308 308 306 305 303 302 301 299 298 296 295 294 294 294 294 293 293 291 289 289
322 321 322 322 320 320 321 321 321 321 319 319 319 316 314 312 311 310 310 309 309 308 307 306 306 305 303 301 300 299 297 296 295 294 293 292 292 289 289 288 287 286 287 286
319 319 319 320 321 320 320 319 319 318 318 318 318 315 313 311 310 310 309 308 307 306 305 303 301 300 298 298 297 296 295 293 292 290 290 288 287 286 285 285 284 283 283 282
321 317 321 321 320 320 321 320 318 317 317 317 316 314 312 311 310 309 308 306 305 303 301 299 297 297 296 295 295 293 291 290 289 288 287 287 286 286 285 284 283 282 282 281
318 318 319 320 318 318 319 320 319 316 316 316 314 313 311 310 308 307 305 304 303 300 298 296 294 293 292 291 291 290 288 287 286 285 286 285 284 284 285 284 283 282 281 280
317 316 316 315 316 315 315 317 316 315 315 314 313 311 309 308 305 304 303 301 298 295 293 291 289 288 287 288 288 287 286 285 285 285 284 283 283 282 282 282 282 282 281 279
317 315 314 313 312 311 311 311 312 312 312 311 310 309 307 305 303 302 299 296 293 291 289 287 286 286 287 286 285 284 284 284 283 283 282 281 281 280 280 280 281 280 280 279
314 311 310 310 311 309 308 308 309 308 308 307 307 305 303 301 299 295 293 291 289 287 286 287 288 286 284 284 284 284 283 282 281 281 281 280 279 279 279 279 279 279 278 278
311 312 311 310 309 307 307 307 306 305 304 303 301 300 298 295 291 290 289 288 288 289 289 288 287 284 287 287 283 282 281 281 280 279 279 279 278 278 277 277 277 277 277 276
308 309 309 309 309 306 305 303 302 300 299 298 296 294 291 290 289 288 288 288 289 288 284 285 288 287 284 282 281 281 280 279 279 278 278 278 277 276 276 276 276 275 275 275
303 304 304 304 304 302 300 297 297 297 296 295 294 291 290 289 288 287 287 288 285 286 286 286 283 281 281 280 280 279 279 278 277 277 277 277 276 275 275 274 274 273 273 273
299 300 299 299 299 298 295 294 293 292 291 292 291 289 289 288 289 288 287 285 285 285 284 281 280 280 280 279 278 278 277 277 276 276 275 275 274 273 273 273 272 272 272 272
293 294 294 293 292 291 290 290 291 290 290 290 291 289 288 287 287 286 286 285 283 281 280 280 279 279 278 278 277 277 276 276 275 274 273 273 272 272 272 271 271 271 270 270
290 290 289 289 289 289 289 290 290 290 290 290 289 288 287 285 284 283 282 283 281 280 279 279 278 277 277 276 276 276 275 274 273 272 272 271 271 270 270 270 269 269 268 268
289 289 290 290 289 289 290 290 289 289 288 287 285 285 284 282 281 282 281 280 279 278 277 278 278 279 278 276 275 274 273 272 271 271 270 270 269 269 269 268 268 267 267 267
287 287 287 287 288 289 287 286 286 286 285 284 283 282 282 282 282 281 280 279 278 277 277 278 277 277 276 274 272 271 270 270 270 270 270 269 268 268 267 267 266 266 266 266
286 285 285 285 285 283 283 283 283 282 282 282 281 281 281 281 280 279 279 279 278 276 275 276 275 274 273 271 270 270 269 269 269 268 267 267 267 267 266 266 265 265 265 267
283 282 282 282 282 282 282 281 281 281 281 280 279 279 279 279 279 278 277 276 276 275 273 272 271 271 270 269 269 268 268 268 267 267 266 266 266 266 265 265 264 264 264 266
280 280 280 279 279 280 280 279 279 279 279 279 277 277 276 276 276 274 274 273 272 271 271 270 269 269 268 267 267 267 267 266 266 265 264 264 264 264 264 263 263 265 266 267
Wind_Speed
23 20 17 23 23 22 22 19 17 16 18 13 11 11 11 9 9 10 13 13 14 14 14 15 15 15 14 14 16 16 19 18 14 10 7 7 7 8 9 8 8 8 8 8
21 20 18 19 18 18 20 21 20 19 20 13 14 12 13 6 8 12 13 14 15 16 15 15 15 15 14 13 13 12 11 9 8 8 9 8 7 7 6 4 3 1 1 3
17 18 20 17 17 19 20 19 17 18 17 16 13 12 13 16 13 14 12 13 13 15 16 15 16 16 15 15 15 15 14 13 11 9 7 7 7 8 8 7 5 3 2 2
8 3 16 10 15 20 22 20 17 17 17 16 17 18 10 8 10 12 13 16 18 18 18 18 18 18 18 17 16 15 14 13 11 10 11 11 10 8 6 5 4 2 4 8
8 12 13 18 10 13 15 16 17 16 16 17 18 3 6 8 12 17 17 17 18 19 19 19 19 18 18 17 16 16 15 14 14 13 13 12 10 9 7 4 3 6 4 4
7 14 19 12 14 14 13 13 14 15 12 6 6 7 11 19 18 19 19 19 19 18 18 17 17 18 18 17 16 16 16 15 14 13 12 12 8 3 1 2 2 2 1 2
13 10 8 10 14 15 13 14 9 6 8 9 9 13 3 22 22 21 20 20 19 18 17 17 17 17 17 17 17 17 17 15 12 11 9 5 1 3 4 2 1 2 5 5
9 11 14 4 11 14 16 23 7 11 12 11 9 9 20 24 24 24 23 21 19 19 18 17 17 18 18 18 17 16 13 11 9 6 5 6 6 4 2 0 2 3 7 7
8 5 10 18 19 22 23 16 11 13 13 13 17 20 23 26 27 25 23 21 19 19 19 18 17 17 18 18 16 14 12 11 10 9 8 7 5 2 1 1 3 5 7 7
12 11 14 12 20 19 11 17 14 12 13 16 22 23 26 27 28 26 25 23 21 21 21 20 19 18 18 17 15 14 13 12 11 9 7 5 3 2 2 4 4 6 6 8
16 17 24 19 13 15 17 15 12 10 12 16 21 25 28 28 28 27 25 24 23 22 22 20 19 18 16 15 14 14 13 12 10 8 7 4 3 3 4 8 8 8 10 12
8 14 12 17 15 9 13 18 15 16 16 18 21 25 27 27 27 26 26 24 23 22 22 20 19 17 15 14 13 13 12 11 10 7 6 5 3 5 8 10 10 11 12 12
16 20 12 11 12 13 9 16 15 16 16 18 20 23 25 25 25 26 24 24 23 22 21 20 18 16 14 14 13 11 10 9 8 6 5 4 2 2 2 11 14 16 17 16
17 9 14 13 6 12 11 12 14 13 14 19 21 20 22 23 24 25 24 23 22 22 20 20 19 17 14 13 12 10 8 7 5 4 3 2 4 5 5 6 6 6 12 18
12 12 12 11 8 7 7 10 12 16 19 21 22 28 26 25 25 25 24 24 23 22 20 18 17 16 14 12 10 7 4 4 4 4 5 6 6 5 6 6 7 8 9 10
5 6 7 9 9 7 8 9 11 14 17 20 25 24 26 26 28 28 24 25 27 24 23 21 18 14 11 9 6 4 6 5 5 4 5 5 5 5 5 6 7 8 9 11
8 7 8 11 9 8 8 8 11 13 16 19 23 26 31 36 35 34 32 29 25 25 22 17 13 11 6 5 8 7 5 5 5 5 5 6 7 7 7 7 8 9 9 13
7 8 6 5 7 7 7 9 12 16 20 27 33 36 34 33 30 30 31 28 24 22 18 14 10 8 9 9 7 6 6 6 6 7 7 8 9 9 9 8 8 9 11 12
7 7 7 9 5 8 11 16 20 22 24 29 31 30 27 26 30 28 26 23 20 17 12 9 8 7 6 4 4 5 6 7 7 8 9 11 9 9 8 9 9 10 11 12
6 5 3 6 8 8 14 16 20 25 26 26 27 30 31 28 25 23 21 18 12 10 9 8 5 4 3 4 5 6 7 8 9 10 11 11 9 11 9 11 11 11 11 12
16 15 16 17 20 19 19 21 23 26 26 28 31 31 29 25 20 17 15 13 10 8 5 3 3 3 4 6 7 8 9 10 10 9 9 9 10 10 11 11 11 11 12 13
21 24 25 26 28 28 26 27 28 28 28 25 23 22 22 20 16 13 9 6 6 4 3 3 3 4 7 8 9 11 12 12 11 10 9 10 11 11 11 11 12 12 13 14
26 28 29 30 31 31 29 27 24 22 22 20 19 17 16 14 11 7 6 3 3 3 3 5 7 11 11 11 11 12 11 11 10 11 12 12 13 12 13 13 13 14 14 15
27 28 28 27 26 24 25 22 20 19 19 18 16 14 10 7 5 3 2 3 3 4 8 10 11 12 13 12 11 11 11 10 12 12 13 15 14 14 13 14 14 14 15 16
26 25 23 22 23 22 21 19 19 17 15 14 11 8 6 6 2 1 2 4 4 4 10 11 12 13 13 11 10 11 11 11 13 14 13 13 13 14 14 15 15 16 18 20
23 24 24 23 21 18 17 16 17 15 12 11 9 7 6 6 5 3 4 6 8 8 8 11 11 13 11 11 12 12 12 12 12 13 15 14 14 15 15 15 16 17 18 19
23 21 19 20 19 17 15 14 12 11 10 10 8 8 7 6 6 5 5 6 7 8 8 9 11 12 13 12 12 12 14 13 14 15 15 14 14 14 15 15 16 19 21 21
Wind_Direction
230 245 231 218 217 223 237 231 232 247 253 251 265 261 276 276 184 227 222 214 202 187 172 165 159 157 158 157 161 173 193 202 208 213 225 233 239 237 230 226 234 241 246 254
233 235 249 254 248 236 238 234 244 244 260 263 285 277 271 231 237 225 222 212 205 200 181 171 164 158 156 151 151 151 153 164 163 153 157 166 170 166 159 170 181 206 343 355
233 228 232 240 242 245 244 248 239 245 257 263 261 248 249 257 230 235 202 189 180 175 170 165 159 151 146 143 142 142 142 144 152 156 156 155 145 134 123 122 135 127 137 264
215 268 238 241 237 233 241 252 240 241 253 267 275 271 275 272 239 206 185 166 160 156 149 144 141 139 135 135 134 135 135 138 137 133 131 129 131 129 122 116 131 195 269 277
219 226 245 233 222 225 246 242 238 254 263 268 297 246 209 221 204 184 175 163 154 150 145 139 136 135 133 131 130 128 127 129 130 129 128 128 129 132 152 197 242 282 322 357
193 230 230 235 231 221 247 253 252 254 265 276 229 226 252 185 175 169 167 163 153 147 141 137 136 136 134 132 132 129 130 130 129 131 137 155 169 162 266 346 88 125 181 294
226 240 246 226 228 201 210 248 265 231 249 254 252 237 226 165 168 168 168 160 152 147 143 143 143 142 138 138 135 135 134 139 151 160 161 145 139 95 117 149 162 274 305 297
233 233 236 165 155 200 222 247 225 225 238 240 235 158 162 165 166 166 164 162 157 153 151 150 149 147 143 140 139 137 141 144 148 146 128 125 135 126 116 171 313 318 300 308
224 234 218 192 219 224 243 275 219 237 226 211 180 175 173 170 169 169 168 165 162 158 150 148 151 152 147 146 145 143 137 135 136 134 129 131 137 133 143 326 307 294 307 308
266 267 261 227 241 261 253 243 262 238 227 199 185 183 180 176 173 171 170 168 165 160 156 153 155 156 154 151 148 145 142 139 138 138 137 133 134 127 188 249 278 300 305 302
252 254 265 260 253 260 261 255 239 224 218 205 187 187 185 181 177 173 173 170 168 164 160 156 154 152 150 148 147 146 146 145 145 150 148 143 181 205 274 290 297 294 292 299
245 261 265 255 255 276 254 245 245 236 208 197 194 189 185 182 178 173 172 171 167 165 160 157 152 148 147 148 154 153 151 156 167 171 175 154 173 302 300 298 298 302 303 303
256 270 286 280 276 272 276 250 235 226 215 198 189 186 185 179 175 172 169 168 167 163 157 150 146 139 139 148 151 154 159 175 182 180 176 203 233 251 255 306 312 318 318 319
259 262 275 263 280 262 234 220 214 205 203 189 176 181 180 175 170 166 165 163 160 155 151 147 143 146 142 147 162 173 182 178 163 162 200 224 247 261 274 277 282 292 308 307
257 248 254 262 263 248 209 203 194 186 179 174 174 167 172 169 164 161 157 153 150 148 143 138 133 134 149 153 152 153 172 187 205 240 256 265 271 277 276 286 287 293 300 307
271 267 265 256 248 225 206 194 192 182 173 163 161 165 162 160 157 147 146 150 146 143 149 149 150 147 144 150 149 186 222 241 249 261 278 280 286 281 283 288 290 294 298 298
280 280 281 264 249 227 215 196 190 178 163 157 154 151 156 150 144 147 148 153 155 147 146 151 155 137 123 189 201 199 232 250 263 259 261 274 277 283 284 291 291 293 297 298
317 316 324 295 242 208 177 158 153 149 151 156 155 152 148 151 153 151 149 151 148 139 142 146 163 174 195 203 211 234 251 267 270 273 280 281 283 283 287 290 293 296 297 297
16 37 54 77 108 141 140 143 154 160 162 160 158 154 157 152 146 141 139 142 137 143 146 152 174 195 202 220 243 261 268 274 281 283 283 289 291 291 294 291 292 294 299 302
47 60 93 120 136 162 150 145 146 144 149 151 148 142 139 138 138 138 141 135 145 149 147 168 190 208 237 267 282 289 289 288 287 289 288 286 288 290 294 297 297 298 301 302
79 87 95 104 109 115 119 127 132 132 136 137 134 134 135 136 142 142 139 135 135 142 161 192 229 269 298 314 308 303 300 298 298 293 290 291 293 295 291 292 295 299 299 298
89 97 101 106 108 109 114 118 120 124 125 125 128 132 136 132 132 126 122 123 136 160 207 233 264 294 315 322 308 307 301 297 293 291 289 289 290 289 290 292 295 297 297 302
94 99 103 103 102 105 110 109 109 112 111 114 117 120 118 111 98 93 104 120 172 214 241 274 297 303 311 314 304 301 297 295 296 290 289 287 284 285 288 291 294 298 301 301
89 88 90 98 104 102 95 96 104 107 110 109 105 98 91 95 106 121 148 207 255 265 276 299 309 315 317 308 302 298 298 296 292 289 286 285 292 290 290 291 295 297 298 303
82 83 84 85 84 83 88 90 90 87 87 87 86 85 92 104 115 63 300 293 301 313 304 308 310 309 311 305 302 300 301 296 287 281 286 284 286 288 290 291 292 294 296 304
77 79 81 83 81 79 80 82 81 79 74 74 68 53 33 22 19 354 318 309 308 310 296 310 310 311 314 313 301 302 298 295 293 287 284 292 293 293 291 291 292 295 300 304
79 74 71 70 68 70 73 74 71 66 74 65 50 39 32 15 0 344 338 326 322 323 326 320 321 308 308 303 304 298 293 293 291 289 294 300 298 295 292 292 294 298 304 306